Weather History for Guymon, OK

Change the Weather History Date:

Thursday, October 18, 2012

  Actual Average Record
Temperature  
Mean Temperature 50 °F 56 °F  
Max Temperature 65 °F 71 °F 91 °F (2003)
Min Temperature 35 °F 42 °F 28 °F (1999)
Degree Days  
Heating Degree Days 15 9  
Month to date heating degree days 150 119  
Since 1 July heating degree days 172 162  
Cooling Degree Days 0 0  
Month to date cooling degree days 5 25  
Year to date cooling degree days 1910 1479  
Moisture  
Dew Point 24 °F    
Average Humidity 45    
Maximum Humidity 70    
Minimum Humidity 20    
Precipitation  
Precipitation 0.00 in 0.05 in 0.01 in (2006)
Month to date precipitation 0.21 1.04  
Year to date precipitation 10.79 17.60  
Snow  
Snow 0.00 in - - ()
Month to date snowfall 0.0  
Since 1 July snowfall 0.0  
Since 1 September snowfall 0.0  
Snow Depth 0.00 in    
Sea Level Pressure  
Sea Level Pressure 30.01 in    
Wind  
Wind Speed 8 mph (NW)    
Max Wind Speed 22 mph    
Max Gust Speed 26 mph    
Visibility 10 miles    
Events      
T = Trace of Precipitation, MM = Missing Value Source: NWS Daily Summary

Daily Weather History Graph

Daily Weather History Graph

Search for Another Location

Airport:

Trip Planner

Search our weather history database for the weather conditions in past years. The results will help you decide how hot, cold, wet, or windy it might be!

Date:

Astronomy

Oct. 18, 2012 Rise Set
Actual Time 7:56 AM CDT 7:04 PM CDT
Civil Twilight 7:30 AM CDT 7:31 PM CDT
Nautical Twilight 7:00 AM CDT 8:01 PM CDT
Astronomical Twilight 6:30 AM CDT 8:31 PM CDT
Moon 11:35 AM CDT (10/18) 9:46 PM CDT (10/18)
Length of Visible Light 12h 00m
Length of Day
11h 08m
Waxing Crescent, 14% of the Moon is Illuminated
Oct 18
Waxing Crescent
Oct 21
First Quarter
Oct 29
Full
Nov 6
Last Quarter
Nov 13
New

Hourly Weather History & Observations

Time (CDT) Temp. Windchill Dew Point Humidity Pressure Visibility Wind Dir Wind Speed Gust Speed Precip Events Conditions
12:53 AM 42.1 °F 38.4 °F 27.0 °F 55% 29.91 in 10.0 mi West 5.8 mph - N/A   Clear
1:53 AM 42.1 °F 37.1 °F 26.1 °F 53% 29.92 in 10.0 mi WNW 8.1 mph - N/A   Clear
2:53 AM 37.9 °F 32.7 °F 26.1 °F 62% 29.94 in 10.0 mi SW 6.9 mph - N/A   Clear
3:53 AM 39.0 °F 35.7 °F 27.0 °F 62% 29.95 in 10.0 mi WSW 4.6 mph - N/A   Clear
4:53 AM 36.0 °F 29.6 °F 26.1 °F 67% 29.99 in 10.0 mi North 8.1 mph - N/A   Clear
5:53 AM 37.0 °F 31.6 °F 25.0 °F 62% 30.01 in 10.0 mi North 6.9 mph - N/A   Clear
6:53 AM 37.0 °F 31.6 °F 24.1 °F 59% 30.04 in 10.0 mi North 6.9 mph - N/A   Clear
7:53 AM 37.9 °F 33.5 °F 21.9 °F 53% 30.06 in 10.0 mi North 5.8 mph - N/A   Clear
8:53 AM 43.0 °F 38.8 °F 23.0 °F 45% 30.07 in 10.0 mi NW 6.9 mph - N/A   Clear
9:53 AM 50.0 °F - 21.0 °F 32% 30.08 in 10.0 mi North 16.1 mph 19.6 mph N/A   Clear
10:53 AM 54.0 °F - 19.9 °F 26% 30.07 in 10.0 mi North 18.4 mph - N/A   Clear
11:53 AM 57.0 °F - 19.9 °F 24% 30.06 in 10.0 mi North 16.1 mph 24.2 mph N/A   Clear
12:53 PM 59.0 °F - 19.0 °F 21% 30.06 in 10.0 mi North 8.1 mph 19.6 mph N/A   Clear
1:53 PM 60.1 °F - 19.9 °F 21% 30.03 in 10.0 mi Variable 4.6 mph - N/A   Clear
2:53 PM 62.1 °F - 21.9 °F 21% 30.01 in 10.0 mi WNW 9.2 mph 20.7 mph N/A   Clear
3:53 PM 63.0 °F - 23.0 °F 22% 29.99 in 10.0 mi West 17.3 mph 20.7 mph N/A   Clear
4:53 PM 64.0 °F - 23.0 °F 21% 29.98 in 10.0 mi West 8.1 mph 18.4 mph N/A   Clear
5:53 PM 64.0 °F - 24.1 °F 22% 29.97 in 10.0 mi WNW 6.9 mph - N/A   Clear
6:53 PM 59.0 °F - 25.0 °F 27% 29.99 in 10.0 mi NW 8.1 mph - N/A   Clear
7:53 PM 57.0 °F - 24.1 °F 28% 30.00 in 10.0 mi WNW 5.8 mph - N/A   Clear
8:53 PM 54.0 °F - 24.1 °F 31% 30.01 in 10.0 mi WNW 5.8 mph - N/A   Clear
9:53 PM 48.0 °F - 26.1 °F 42% 30.04 in 10.0 mi NNW 8.1 mph - N/A   Clear
10:53 PM 48.0 °F - 25.0 °F 41% 30.05 in 10.0 mi North 3.5 mph - N/A   Clear
11:53 PM 43.0 °F 40.3 °F 23.0 °F 45% 30.05 in 10.0 mi North 4.6 mph - N/A   Clear